Flag for Russia Weather past 2 weeks in Sochi, Russia

Now
36 °F

Passing clouds.


Feels Like: 28 °F
Forecast: 42 / 62 °F
Wind: 10 mph from East

Location: Adler

Current Time: Mar 6, 2015 at 4:06:17 AM

Latest Report: Mar 6, 2015 at 3:30 AM


Visibility: N/A

Pressure: 30.39 "Hg

Humidity: 87%

Dew point: 32 °F

Location of SochiLocation

Historic Weather in Sochi — Graph

°F

Sochi temperature yesterday

Maximum temperature yesterday: 48 °F (at 5:00 PM)
Minimum temperature yesterday: 36 °F (at 4:00 AM)
Average temperature yesterday: 40 °F

Past Weeks' High & Low Weather Summary

 TemperatureHumidityPressure
High63 °F (Feb 24, 12:30 PM)100% (Mar 1, 10:30 AM)30.45 "Hg (Mar 1, 10:30 AM)
Low32 °F (Feb 19, 2:00 AM)25% (Feb 24, 2:00 PM)29.80 "Hg (Feb 28, 3:30 AM)
Average46 °F70%30.06 "Hg
* Reported Feb 19 2:00 AM — Mar 6 2:30 AM, Sochi, Weather by CustomWeather, © 2015

Note: Actual official high and low records may vary slightly from our data, if they occured in-between our weather recording intervals... More about our weather records

Advertising

Sochi weather history for previous 24 hours

 ConditionsComfort  
Time TempWeatherWind HumidityBarometerVisibility
2:30 AM
Fri, Mar 6
36 °FPassing clouds.13 mph87%30.39 "HgN/A
2:00 AM36 °FPassing clouds.10 mph93%30.42 "HgN/A
1:30 AM36 °FPassing clouds.10 mph93%30.42 "HgN/A
1:00 AM36 °FPassing clouds.10 mph93%30.42 "HgN/A
12:30 AM37 °FPassing clouds.10 mph87%30.42 "HgN/A
11:30 PM
Thu, Mar 5
37 °FPassing clouds.8 mph93%30.42 "HgN/A
11:00 PM39 °FPassing clouds.10 mph87%30.42 "HgN/A
10:30 PM39 °FPassing clouds.8 mph87%30.42 "HgN/A
10:00 PM41 °FPassing clouds.8 mph81%30.45 "HgN/A
9:30 PM39 °FPassing clouds.10 mph87%30.45 "HgN/A
9:00 PM39 °FPassing clouds.8 mph87%30.42 "HgN/A
8:30 PM39 °FPartly cloudy.8 mph87%30.42 "HgN/A
8:00 PM41 °FPartly cloudy.6 mph81%30.42 "HgN/A
7:30 PM41 °FPartly cloudy.10 mph81%30.42 "HgN/A
7:00 PM41 °FBroken clouds.8 mph81%30.42 "HgN/A
6:30 PM43 °FPassing clouds.1 mph76%30.42 "HgN/A
6:00 PM43 °FPassing clouds.6 mph76%30.39 "HgN/A
5:30 PM45 °FPassing clouds.6 mph71%30.39 "HgN/A
5:00 PM48 °FPassing clouds.1 mph58%30.39 "HgN/A
4:30 PM46 °FPassing clouds.1 mph66%30.39 "HgN/A
4:00 PM46 °FScattered clouds.1 mph66%30.39 "HgN/A
3:30 PM46 °FScattered clouds.3 mph76%30.39 "HgN/A
3:00 PM45 °FScattered clouds.6 mph76%30.39 "HgN/A
2:30 PM45 °FPartly sunny.3 mph81%30.39 "HgN/A
2:16 PM43 °FSprinkles. Broken clouds.1 mph81%30.39 "Hg4 mi
2:00 PM43 °FSprinkles. More clouds than sun.6 mph81%30.39 "Hg4 mi
1:30 PM43 °FMore clouds than sun.3 mph81%30.39 "HgN/A
1:00 PM43 °FMostly cloudy.10 mph87%30.36 "HgN/A
12:30 PM43 °FSprinkles. Mostly cloudy.10 mph87%30.36 "HgN/A
12:00 PM39 °FSprinkles. Mostly cloudy.8 mph93%30.36 "HgN/A
11:30 AM39 °FSnow flurries. Overcast.10 mph87%30.36 "Hg5 mi
11:00 AM41 °FOvercast.6 mph87%30.33 "HgN/A
10:30 AM41 °FOvercast.8 mph87%30.33 "HgN/A
10:00 AM39 °FOvercast.10 mph93%30.33 "HgN/A
9:30 AM39 °FOvercast.10 mph87%30.33 "HgN/A
9:00 AM37 °FSprinkles. Overcast.6 mph93%30.33 "Hg3 mi
8:30 AM39 °FSprinkles. Mostly cloudy.3 mph87%30.30 "Hg3 mi
8:00 AM39 °FCloudy.8 mph87%30.27 "HgN/A
7:30 AM37 °FOvercast.6 mph87%30.27 "HgN/A
7:00 AM37 °FOvercast.10 mph87%30.27 "HgN/A
6:30 AM37 °FOvercast.3 mph87%30.27 "HgN/A
6:00 AM37 °FOvercast.6 mph93%30.24 "HgN/A
5:00 AM37 °FSprinkles. Overcast.13 mph93%30.24 "Hg6 mi
4:30 AM36 °FSprinkles. Overcast.13 mph93%30.21 "HgN/A
4:00 AM36 °FSprinkles. Overcast.13 mph93%30.21 "HgN/A
Weather by CustomWeather, © 2015

See weather overviewHow to use our weather pages